owner,sensor,date,latitude,longitude,air_pressure(mBar),qcFlag 
TCOON,ioos:station:TCOON:068:1,2004-07-01T19:00:00Z,27.2970,-97.4049,1014.6,11111222 
TCOON,ioos:station:TCOON:068:1,2004-07-01T20:00:00Z,27.2970,-97.4049,1013.9,11111222 
TCOON,ioos:station:TCOON:068:1,2004-07-01T23:00:00Z,27.2970,-97.4049,1012.9,11111222 
TCOON,ioos:station:TCOON:068:1,2004-07-02T07:00:00Z,27.2970,-97.4049,1014.8,11111222 
TCOON,ioos:station:TCOON:068:1,2004-07-02T08:00:00Z,27.2970,-97.4049,1014.6,11111222 
TCOON,ioos:station:TCOON:068:1,2004-07-02T11:00:00Z,27.2970,-97.4049,1014.1,11111222 
TCOON,ioos:station:TCOON:068:1,2004-07-02T13:00:00Z,27.2970,-97.4049,1014.7,11111222 
TCOON,ioos:station:TCOON:068:1,2004-07-02T14:00:00Z,27.2970,-97.4049,1014.9,11111222 
TCOON,ioos:station:TCOON:068:1,2004-07-02T19:00:00Z,27.2970,-97.4049,1013.8,11111222 
TCOON,ioos:station:TCOON:068:1,2004-07-02T20:00:00Z,27.2970,-97.4049,1013.2,11111222 
TCOON,ioos:station:TCOON:068:1,2004-07-02T22:00:00Z,27.2970,-97.4049,1012.2,11111222 
TCOON,ioos:station:TCOON:068:1,2004-07-02T23:00:00Z,27.2970,-97.4049,1011.6,11111222 
TCOON,ioos:station:TCOON:068:1,2004-07-03T01:00:00Z,27.2970,-97.4049,1011.9,11111222 
TCOON,ioos:station:TCOON:068:1,2004-07-03T02:00:00Z,27.2970,-97.4049,1012.0,11111222 
TCOON,ioos:station:TCOON:068:1,2004-07-03T04:00:00Z,27.2970,-97.4049,1013.0,11111222 
TCOON,ioos:station:TCOON:068:1,2004-07-03T05:00:00Z,27.2970,-97.4049,1013.4,11111222 
TCOON,ioos:station:TCOON:068:1,2004-07-03T07:00:00Z,27.2970,-97.4049,1013.3,11111222 
TCOON,ioos:station:TCOON:068:1,2004-07-03T08:00:00Z,27.2970,-97.4049,1012.5,11111222 
TCOON,ioos:station:TCOON:068:1,2004-07-03T11:00:00Z,27.2970,-97.4049,1011.4,11111222 
TCOON,ioos:station:TCOON:068:1,2004-07-03T14:00:00Z,27.2970,-97.4049,1012.5,11111222 
TCOON,ioos:station:TCOON:068:1,2004-07-03T17:00:00Z,27.2970,-97.4049,1012.4,11111222 
TCOON,ioos:station:TCOON:068:1,2004-07-03T19:00:00Z,27.2970,-97.4049,1011.8,11111222 
TCOON,ioos:station:TCOON:068:1,2004-07-03T20:00:00Z,27.2970,-97.4049,1011.0,11111222 
TCOON,ioos:station:TCOON:068:1,2004-07-03T23:00:00Z,27.2970,-97.4049,1010.0,11111222 
TCOON,ioos:station:TCOON:068:1,2004-07-04T01:00:00Z,27.2970,-97.4049,1010.7,11111222 
TCOON,ioos:station:TCOON:068:1,2004-07-04T02:00:00Z,27.2970,-97.4049,1011.3,11111222 
TCOON,ioos:station:TCOON:068:1,2004-07-04T04:00:00Z,27.2970,-97.4049,1012.3,11111222 
TCOON,ioos:station:TCOON:068:1,2004-07-04T05:00:00Z,27.2970,-97.4049,1012.5,11111222 
TCOON,ioos:station:TCOON:068:1,2004-07-04T07:00:00Z,27.2970,-97.4049,1012.1,11111222 
TCOON,ioos:station:TCOON:068:1,2004-07-04T08:00:00Z,27.2970,-97.4049,1012.0,11111222 
TCOON,ioos:station:TCOON:068:1,2004-07-04T11:00:00Z,27.2970,-97.4049,1011.4,11111222 
TCOON,ioos:station:TCOON:068:1,2004-07-04T13:00:00Z,27.2970,-97.4049,1012.0,11111222 
TCOON,ioos:station:TCOON:068:1,2004-07-04T14:00:00Z,27.2970,-97.4049,1012.2,11111222 
TCOON,ioos:station:TCOON:068:1,2004-07-04T16:00:00Z,27.2970,-97.4049,1012.7,11111222 
TCOON,ioos:station:TCOON:068:1,2004-07-04T17:00:00Z,27.2970,-97.4049,1012.4,11111222 
TCOON,ioos:station:TCOON:068:1,2004-07-04T20:00:00Z,27.2970,-97.4049,1011.5,11111222 
TCOON,ioos:station:TCOON:068:1,2004-07-04T23:00:00Z,27.2970,-97.4049,1010.3,11111222 
TCOON,ioos:station:TCOON:068:1,2004-07-05T02:00:00Z,27.2970,-97.4049,1010.9,11111222 
TCOON,ioos:station:TCOON:068:1,2004-07-05T04:00:00Z,27.2970,-97.4049,1012.7,11111222 
TCOON,ioos:station:TCOON:068:1,2004-07-05T05:00:00Z,27.2970,-97.4049,1012.9,11111222 
TCOON,ioos:station:TCOON:068:1,2004-07-05T10:00:00Z,27.2970,-97.4049,1012.4,11111222 
TCOON,ioos:station:TCOON:068:1,2004-07-05T11:00:00Z,27.2970,-97.4049,1012.8,11111222 
TCOON,ioos:station:TCOON:068:1,2004-07-05T13:00:00Z,27.2970,-97.4049,1013.5,11111222 
TCOON,ioos:station:TCOON:068:1,2004-07-05T14:00:00Z,27.2970,-97.4049,1014.2,11111222 
TCOON,ioos:station:TCOON:068:1,2004-07-05T23:00:00Z,27.2970,-97.4049,1012.2,11111222 
TCOON,ioos:station:TCOON:068:1,2004-07-06T01:00:00Z,27.2970,-97.4049,1012.7,11111222 
TCOON,ioos:station:TCOON:068:1,2004-07-06T02:00:00Z,27.2970,-97.4049,1013.0,11111222 
TCOON,ioos:station:TCOON:068:1,2004-07-06T05:00:00Z,27.2970,-97.4049,1014.4,11111222 
TCOON,ioos:station:TCOON:068:1,2004-07-06T07:00:00Z,27.2970,-97.4049,1014.4,11111222 
TCOON,ioos:station:TCOON:068:1,2004-07-06T08:00:00Z,27.2970,-97.4049,1014.1,11111222 
TCOON,ioos:station:TCOON:068:1,2004-07-06T10:00:00Z,27.2970,-97.4049,1013.7,11111222 
TCOON,ioos:station:TCOON:068:1,2004-07-06T11:00:00Z,27.2970,-97.4049,1013.8,11111222 
TCOON,ioos:station:TCOON:068:1,2004-07-06T13:00:00Z,27.2970,-97.4049,1014.9,11111222 
TCOON,ioos:station:TCOON:068:1,2004-07-06T14:00:00Z,27.2970,-97.4049,1015.5,11111222 
TCOON,ioos:station:TCOON:068:1,2004-07-06T16:00:00Z,27.2970,-97.4049,1015.7,11111222 
TCOON,ioos:station:TCOON:068:1,2004-07-06T17:00:00Z,27.2970,-97.4049,1015.1,11111222 
TCOON,ioos:station:TCOON:068:1,2004-07-06T19:00:00Z,27.2970,-97.4049,1014.3,11111222 
TCOON,ioos:station:TCOON:068:1,2004-07-06T20:00:00Z,27.2970,-97.4049,1013.7,11111222 
TCOON,ioos:station:TCOON:068:1,2004-07-06T23:00:00Z,27.2970,-97.4049,1012.6,11111222 
TCOON,ioos:station:TCOON:068:1,2004-07-07T01:00:00Z,27.2970,-97.4049,1012.3,11111222 
TCOON,ioos:station:TCOON:068:1,2004-07-07T02:00:00Z,27.2970,-97.4049,1012.9,11111222 
TCOON,ioos:station:TCOON:068:1,2004-07-07T05:00:00Z,27.2970,-97.4049,1014.1,11111222 
TCOON,ioos:station:TCOON:068:1,2004-07-07T08:00:00Z,27.2970,-97.4049,1012.7,11111222 
TCOON,ioos:station:TCOON:068:1,2004-07-07T11:00:00Z,27.2970,-97.4049,1013.3,11111222 
TCOON,ioos:station:TCOON:068:1,2004-07-07T14:00:00Z,27.2970,-97.4049,1013.4,11111222 
TCOON,ioos:station:TCOON:068:1,2004-07-07T17:00:00Z,27.2970,-97.4049,1013.5,11111222 
TCOON,ioos:station:TCOON:068:1,2004-07-07T20:00:00Z,27.2970,-97.4049,1012.0,11111222 
TCOON,ioos:station:TCOON:068:1,2004-07-07T23:00:00Z,27.2970,-97.4049,1010.4,11111222 
TCOON,ioos:station:TCOON:068:1,2004-07-08T02:00:00Z,27.2970,-97.4049,1010.3,11111222 
TCOON,ioos:station:TCOON:068:1,2004-07-08T05:00:00Z,27.2970,-97.4049,1011.1,11111222 
TCOON,ioos:station:TCOON:068:1,2004-07-08T07:00:00Z,27.2970,-97.4049,1011.0,11111222 
TCOON,ioos:station:TCOON:068:1,2004-07-08T08:00:00Z,27.2970,-97.4049,1010.9,11111222 
TCOON,ioos:station:TCOON:068:1,2004-07-08T11:00:00Z,27.2970,-97.4049,1011.1,11111222 
TCOON,ioos:station:TCOON:068:1,2004-07-08T13:00:00Z,27.2970,-97.4049,1011.5,11111222 
TCOON,ioos:station:TCOON:068:1,2004-07-08T14:00:00Z,27.2970,-97.4049,1011.8,11111222 
TCOON,ioos:station:TCOON:068:1,2004-07-08T16:00:00Z,27.2970,-97.4049,1011.6,11111222 
TCOON,ioos:station:TCOON:068:1,2004-07-08T17:00:00Z,27.2970,-97.4049,1011.2,11111222 
TCOON,ioos:station:TCOON:068:1,2004-07-08T20:00:00Z,27.2970,-97.4049,1010.0,11111222 
TCOON,ioos:station:TCOON:068:1,2004-07-08T22:00:00Z,27.2970,-97.4049,1009.4,11111222 
TCOON,ioos:station:TCOON:068:1,2004-07-08T23:00:00Z,27.2970,-97.4049,1009.2,11111222 
TCOON,ioos:station:TCOON:068:1,2004-07-09T02:00:00Z,27.2970,-97.4049,1009.9,11111222 
TCOON,ioos:station:TCOON:068:1,2004-07-09T04:00:00Z,27.2970,-97.4049,1011.3,11111222 
TCOON,ioos:station:TCOON:068:1,2004-07-09T05:00:00Z,27.2970,-97.4049,1011.8,11111222 
TCOON,ioos:station:TCOON:068:1,2004-07-09T10:00:00Z,27.2970,-97.4049,1011.4,11111222 
TCOON,ioos:station:TCOON:068:1,2004-07-09T11:00:00Z,27.2970,-97.4049,1011.4,11111222 
TCOON,ioos:station:TCOON:068:1,2004-07-09T17:00:00Z,27.2970,-97.4049,1013.4,11111222 
TCOON,ioos:station:TCOON:068:1,2004-07-09T20:00:00Z,27.2970,-97.4049,1012.6,11111222 
TCOON,ioos:station:TCOON:068:1,2004-07-09T23:00:00Z,27.2970,-97.4049,1012.4,11111222 
TCOON,ioos:station:TCOON:068:1,2004-07-10T01:00:00Z,27.2970,-97.4049,1012.3,11111222 
TCOON,ioos:station:TCOON:068:1,2004-07-10T02:00:00Z,27.2970,-97.4049,1012.9,11111222 
TCOON,ioos:station:TCOON:068:1,2004-07-10T06:00:00Z,27.2970,-97.4049,1014.5,11111222 
TCOON,ioos:station:TCOON:068:1,2004-07-10T07:00:00Z,27.2970,-97.4049,1013.9,11111222 
TCOON,ioos:station:TCOON:068:1,2004-07-10T08:00:00Z,27.2970,-97.4049,1013.5,11111222 
TCOON,ioos:station:TCOON:068:1,2004-07-10T10:00:00Z,27.2970,-97.4049,1013.7,11111222 
TCOON,ioos:station:TCOON:068:1,2004-07-10T11:00:00Z,27.2970,-97.4049,1013.9,11111222 
TCOON,ioos:station:TCOON:068:1,2004-07-10T13:00:00Z,27.2970,-97.4049,1015.4,11111222 
TCOON,ioos:station:TCOON:068:1,2004-07-10T14:00:00Z,27.2970,-97.4049,1015.9,11111222 
TCOON,ioos:station:TCOON:068:1,2004-07-10T16:00:00Z,27.2970,-97.4049,1016.2,11111222 
TCOON,ioos:station:TCOON:068:1,2004-07-10T17:00:00Z,27.2970,-97.4049,1017.1,11111222 
TCOON,ioos:station:TCOON:068:1,2004-07-10T18:00:00Z,27.2970,-97.4049,1016.7,11111222 
TCOON,ioos:station:TCOON:068:1,2004-07-10T19:00:00Z,27.2970,-97.4049,1016.6,11111222 
TCOON,ioos:station:TCOON:068:1,2004-07-10T22:00:00Z,27.2970,-97.4049,1016.1,11111222 
TCOON,ioos:station:TCOON:068:1,2004-07-10T23:00:00Z,27.2970,-97.4049,1015.8,11111222 
TCOON,ioos:station:TCOON:068:1,2004-07-11T01:00:00Z,27.2970,-97.4049,1015.2,11111222 
TCOON,ioos:station:TCOON:068:1,2004-07-11T02:00:00Z,27.2970,-97.4049,1015.7,11111222 
TCOON,ioos:station:TCOON:068:1,2004-07-11T05:00:00Z,27.2970,-97.4049,1016.9,11111222 
TCOON,ioos:station:TCOON:068:1,2004-07-11T08:00:00Z,27.2970,-97.4049,1015.6,11111222 
TCOON,ioos:station:TCOON:068:1,2004-07-11T10:00:00Z,27.2970,-97.4049,1015.9,11111222 
TCOON,ioos:station:TCOON:068:1,2004-07-11T11:00:00Z,27.2970,-97.4049,1015.9,11111222 
TCOON,ioos:station:TCOON:068:1,2004-07-11T13:00:00Z,27.2970,-97.4049,1017.0,11111222 
TCOON,ioos:station:TCOON:068:1,2004-07-11T14:00:00Z,27.2970,-97.4049,1017.6,11111222 
TCOON,ioos:station:TCOON:068:1,2004-07-11T17:00:00Z,27.2970,-97.4049,1018.3,11111222 
TCOON,ioos:station:TCOON:068:1,2004-07-11T20:00:00Z,27.2970,-97.4049,1016.9,11111222 
TCOON,ioos:station:TCOON:068:1,2004-07-11T22:00:00Z,27.2970,-97.4049,1016.1,11111222 
TCOON,ioos:station:TCOON:068:1,2004-07-11T23:00:00Z,27.2970,-97.4049,1016.1,11111222 
TCOON,ioos:station:TCOON:068:1,2004-07-12T01:00:00Z,27.2970,-97.4049,1016.6,11111222 
TCOON,ioos:station:TCOON:068:1,2004-07-12T02:00:00Z,27.2970,-97.4049,1016.8,11111222 
TCOON,ioos:station:TCOON:068:1,2004-07-12T05:00:00Z,27.2970,-97.4049,1017.3,11111222 
TCOON,ioos:station:TCOON:068:1,2004-07-12T08:00:00Z,27.2970,-97.4049,1016.4,11111222 
TCOON,ioos:station:TCOON:068:1,2004-07-12T11:00:00Z,27.2970,-97.4049,1016.3,11111222 
TCOON,ioos:station:TCOON:068:1,2004-07-12T14:00:00Z,27.2970,-97.4049,1017.5,11111222 
TCOON,ioos:station:TCOON:068:1,2004-07-12T16:00:00Z,27.2970,-97.4049,1018.0,11111222 
TCOON,ioos:station:TCOON:068:1,2004-07-12T17:00:00Z,27.2970,-97.4049,1018.0,11111222 
TCOON,ioos:station:TCOON:068:1,2004-07-12T19:00:00Z,27.2970,-97.4049,1017.5,11111222 
TCOON,ioos:station:TCOON:068:1,2004-07-12T20:00:00Z,27.2970,-97.4049,1016.6,11111222 
TCOON,ioos:station:TCOON:068:1,2004-07-12T22:00:00Z,27.2970,-97.4049,1015.9,11111222 
TCOON,ioos:station:TCOON:068:1,2004-07-12T23:00:00Z,27.2970,-97.4049,1015.6,11111222 
TCOON,ioos:station:TCOON:068:1,2004-07-13T02:00:00Z,27.2970,-97.4049,1016.0,11111222 
TCOON,ioos:station:TCOON:068:1,2004-07-13T04:00:00Z,27.2970,-97.4049,1016.5,11111222 
TCOON,ioos:station:TCOON:068:1,2004-07-13T05:00:00Z,27.2970,-97.4049,1016.4,11111222 
TCOON,ioos:station:TCOON:068:1,2004-07-13T08:00:00Z,27.2970,-97.4049,1015.6,11111222 
TCOON,ioos:station:TCOON:068:1,2004-07-13T10:00:00Z,27.2970,-97.4049,1015.6,11111222 
TCOON,ioos:station:TCOON:068:1,2004-07-13T11:00:00Z,27.2970,-97.4049,1016.1,11111222 
TCOON,ioos:station:TCOON:068:1,2004-07-13T13:00:00Z,27.2970,-97.4049,1017.3,11111222 
TCOON,ioos:station:TCOON:068:1,2004-07-13T14:00:00Z,27.2970,-97.4049,1017.4,11111222 
TCOON,ioos:station:TCOON:068:1,2004-07-13T17:00:00Z,27.2970,-97.4049,1017.5,11111222 
TCOON,ioos:station:TCOON:068:1,2004-07-13T22:00:00Z,27.2970,-97.4049,1015.2,11111222 
TCOON,ioos:station:TCOON:068:1,2004-07-13T23:00:00Z,27.2970,-97.4049,1014.9,11111222 
TCOON,ioos:station:TCOON:068:1,2004-07-14T01:00:00Z,27.2970,-97.4049,1015.2,11111222 
TCOON,ioos:station:TCOON:068:1,2004-07-14T02:00:00Z,27.2970,-97.4049,1015.2,11111222 
TCOON,ioos:station:TCOON:068:1,2004-07-14T10:00:00Z,27.2970,-97.4049,1014.7,11111222 
TCOON,ioos:station:TCOON:068:1,2004-07-14T11:00:00Z,27.2970,-97.4049,1014.8,11111222 
TCOON,ioos:station:TCOON:068:1,2004-07-14T13:00:00Z,27.2970,-97.4049,1015.3,11111222 
TCOON,ioos:station:TCOON:068:1,2004-07-14T14:00:00Z,27.2970,-97.4049,1015.6,11111222 
TCOON,ioos:station:TCOON:068:1,2004-07-14T16:00:00Z,27.2970,-97.4049,1015.5,11111222 
TCOON,ioos:station:TCOON:068:1,2004-07-14T17:00:00Z,27.2970,-97.4049,1015.5,11111222 
TCOON,ioos:station:TCOON:068:1,2004-07-14T20:00:00Z,27.2970,-97.4049,1014.2,11111222 
TCOON,ioos:station:TCOON:068:1,2004-07-14T22:00:00Z,27.2970,-97.4049,1012.8,11111222 
TCOON,ioos:station:TCOON:068:1,2004-07-14T23:00:00Z,27.2970,-97.4049,1012.3,11111222 
TCOON,ioos:station:TCOON:068:1,2004-07-15T01:00:00Z,27.2970,-97.4049,1012.0,11111222 
TCOON,ioos:station:TCOON:068:1,2004-07-15T02:00:00Z,27.2970,-97.4049,1012.2,11111222 
TCOON,ioos:station:TCOON:068:1,2004-07-15T04:00:00Z,27.2970,-97.4049,1013.1,11111222 
TCOON,ioos:station:TCOON:068:1,2004-07-15T05:00:00Z,27.2970,-97.4049,1013.2,11111222 
TCOON,ioos:station:TCOON:068:1,2004-07-15T14:00:00Z,27.2970,-97.4049,1013.5,11111222 
TCOON,ioos:station:TCOON:068:1,2004-07-15T19:00:00Z,27.2970,-97.4049,1013.0,11111222 
TCOON,ioos:station:TCOON:068:1,2004-07-15T20:00:00Z,27.2970,-97.4049,1012.5,11111222 
TCOON,ioos:station:TCOON:068:1,2004-07-15T22:00:00Z,27.2970,-97.4049,1011.6,11111222 
TCOON,ioos:station:TCOON:068:1,2004-07-15T23:00:00Z,27.2970,-97.4049,1011.2,11111222 
TCOON,ioos:station:TCOON:068:1,2004-07-16T01:00:00Z,27.2970,-97.4049,1010.2,11111222 
TCOON,ioos:station:TCOON:068:1,2004-07-16T02:00:00Z,27.2970,-97.4049,1010.8,11111222 
TCOON,ioos:station:TCOON:068:1,2004-07-16T03:00:00Z,27.2970,-97.4049,1011.2,11111222 
TCOON,ioos:station:TCOON:068:1,2004-07-16T05:00:00Z,27.2970,-97.4049,1011.8,11111222 
TCOON,ioos:station:TCOON:068:1,2004-07-16T07:00:00Z,27.2970,-97.4049,1011.4,11111222 
TCOON,ioos:station:TCOON:068:1,2004-07-16T08:00:00Z,27.2970,-97.4049,1011.2,11111222 
TCOON,ioos:station:TCOON:068:1,2004-07-16T09:00:00Z,27.2970,-97.4049,1011.0,11111222 
TCOON,ioos:station:TCOON:068:1,2004-07-16T11:00:00Z,27.2970,-97.4049,1011.4,11111222 
TCOON,ioos:station:TCOON:068:1,2004-07-16T13:00:00Z,27.2970,-97.4049,1012.3,11111222 
TCOON,ioos:station:TCOON:068:1,2004-07-16T14:00:00Z,27.2970,-97.4049,1012.9,11111222 
TCOON,ioos:station:TCOON:068:1,2004-07-16T16:00:00Z,27.2970,-97.4049,1012.9,11111222 
TCOON,ioos:station:TCOON:068:1,2004-07-16T20:00:00Z,27.2970,-97.4049,1011.8,11111222 
TCOON,ioos:station:TCOON:068:1,2004-07-16T23:00:00Z,27.2970,-97.4049,1010.4,11111222 
TCOON,ioos:station:TCOON:068:1,2004-07-17T00:00:00Z,27.2970,-97.4049,1010.2,11111222 
TCOON,ioos:station:TCOON:068:1,2004-07-17T01:00:00Z,27.2970,-97.4049,1010.5,11111222 
TCOON,ioos:station:TCOON:068:1,2004-07-17T02:00:00Z,27.2970,-97.4049,1010.9,11111222 
TCOON,ioos:station:TCOON:068:1,2004-07-17T04:00:00Z,27.2970,-97.4049,1011.8,11111222 
TCOON,ioos:station:TCOON:068:1,2004-07-17T05:00:00Z,27.2970,-97.4049,1011.7,11111222 
TCOON,ioos:station:TCOON:068:1,2004-07-17T06:00:00Z,27.2970,-97.4049,1011.5,11111222 
TCOON,ioos:station:TCOON:068:1,2004-07-17T07:00:00Z,27.2970,-97.4049,1011.4,11111222 
TCOON,ioos:station:TCOON:068:1,2004-07-17T08:00:00Z,27.2970,-97.4049,1011.3,11111222 
TCOON,ioos:station:TCOON:068:1,2004-07-17T09:00:00Z,27.2970,-97.4049,1011.1,11111222 
TCOON,ioos:station:TCOON:068:1,2004-07-17T10:00:00Z,27.2970,-97.4049,1011.4,11111222 
TCOON,ioos:station:TCOON:068:1,2004-07-17T11:00:00Z,27.2970,-97.4049,1011.5,11111222 
TCOON,ioos:station:TCOON:068:1,2004-07-17T12:00:00Z,27.2970,-97.4049,1011.8,11111222 
TCOON,ioos:station:TCOON:068:1,2004-07-17T13:00:00Z,27.2970,-97.4049,1012.6,11111222 
TCOON,ioos:station:TCOON:068:1,2004-07-17T14:00:00Z,27.2970,-97.4049,1013.0,11111222 
TCOON,ioos:station:TCOON:068:1,2004-07-17T17:00:00Z,27.2970,-97.4049,1013.1,11111222 
TCOON,ioos:station:TCOON:068:1,2004-07-17T20:00:00Z,27.2970,-97.4049,1011.1,11111222 
TCOON,ioos:station:TCOON:068:1,2004-07-17T21:00:00Z,27.2970,-97.4049,1011.0,11111222 
TCOON,ioos:station:TCOON:068:1,2004-07-17T23:00:00Z,27.2970,-97.4049,1010.4,11111222 
TCOON,ioos:station:TCOON:068:1,2004-07-18T02:00:00Z,27.2970,-97.4049,1010.7,11111222 
TCOON,ioos:station:TCOON:068:1,2004-07-18T03:00:00Z,27.2970,-97.4049,1010.9,11111222 
TCOON,ioos:station:TCOON:068:1,2004-07-18T05:00:00Z,27.2970,-97.4049,1011.5,11111222 
TCOON,ioos:station:TCOON:068:1,2004-07-18T08:00:00Z,27.2970,-97.4049,1011.9,11111222 
TCOON,ioos:station:TCOON:068:1,2004-07-18T10:00:00Z,27.2970,-97.4049,1011.9,11111222 
TCOON,ioos:station:TCOON:068:1,2004-07-18T11:00:00Z,27.2970,-97.4049,1011.7,11111222 
TCOON,ioos:station:TCOON:068:1,2004-07-18T14:00:00Z,27.2970,-97.4049,1012.6,11111222 
TCOON,ioos:station:TCOON:068:1,2004-07-18T15:00:00Z,27.2970,-97.4049,1012.7,11111222 
TCOON,ioos:station:TCOON:068:1,2004-07-18T17:00:00Z,27.2970,-97.4049,1012.6,11111222 
TCOON,ioos:station:TCOON:068:1,2004-07-18T18:00:00Z,27.2970,-97.4049,1012.2,11111222 
TCOON,ioos:station:TCOON:068:1,2004-07-18T20:00:00Z,27.2970,-97.4049,1011.2,11111222 
TCOON,ioos:station:TCOON:068:1,2004-07-18T21:00:00Z,27.2970,-97.4049,1010.5,11111222 
TCOON,ioos:station:TCOON:068:1,2004-07-18T22:00:00Z,27.2970,-97.4049,1009.9,11111222 
TCOON,ioos:station:TCOON:068:1,2004-07-18T23:00:00Z,27.2970,-97.4049,1009.9,11111222 
TCOON,ioos:station:TCOON:068:1,2004-07-19T02:00:00Z,27.2970,-97.4049,1010.0,11111222 
TCOON,ioos:station:TCOON:068:1,2004-07-19T05:00:00Z,27.2970,-97.4049,1011.3,11111222 
TCOON,ioos:station:TCOON:068:1,2004-07-19T07:00:00Z,27.2970,-97.4049,1011.2,11111222 
TCOON,ioos:station:TCOON:068:1,2004-07-19T08:00:00Z,27.2970,-97.4049,1010.8,11111222 
TCOON,ioos:station:TCOON:068:1,2004-07-19T10:00:00Z,27.2970,-97.4049,1011.1,11111222 
TCOON,ioos:station:TCOON:068:1,2004-07-19T11:00:00Z,27.2970,-97.4049,1011.2,11111222 
TCOON,ioos:station:TCOON:068:1,2004-07-19T12:00:00Z,27.2970,-97.4049,1011.3,11111222 
TCOON,ioos:station:TCOON:068:1,2004-07-19T13:00:00Z,27.2970,-97.4049,1011.5,11111222 
TCOON,ioos:station:TCOON:068:1,2004-07-19T14:00:00Z,27.2970,-97.4049,1011.8,11111222 
TCOON,ioos:station:TCOON:068:1,2004-07-19T16:00:00Z,27.2970,-97.4049,1012.0,11111222 
TCOON,ioos:station:TCOON:068:1,2004-07-19T21:00:00Z,27.2970,-97.4049,1010.5,11111222 
TCOON,ioos:station:TCOON:068:1,2004-07-20T01:00:00Z,27.2970,-97.4049,1009.5,11111222 
TCOON,ioos:station:TCOON:068:1,2004-07-20T02:00:00Z,27.2970,-97.4049,1009.5,11111222 
TCOON,ioos:station:TCOON:068:1,2004-07-20T03:00:00Z,27.2970,-97.4049,1009.7,11111222 
TCOON,ioos:station:TCOON:068:1,2004-07-20T04:00:00Z,27.2970,-97.4049,1010.2,11111222 
TCOON,ioos:station:TCOON:068:1,2004-07-20T05:00:00Z,27.2970,-97.4049,1010.6,11111222 
TCOON,ioos:station:TCOON:068:1,2004-07-20T07:00:00Z,27.2970,-97.4049,1010.5,11111222 
TCOON,ioos:station:TCOON:068:1,2004-07-20T08:00:00Z,27.2970,-97.4049,1010.2,11111222 
TCOON,ioos:station:TCOON:068:1,2004-07-20T11:00:00Z,27.2970,-97.4049,1010.6,11111222 
TCOON,ioos:station:TCOON:068:1,2004-07-20T14:00:00Z,27.2970,-97.4049,1012.1,11111222 
TCOON,ioos:station:TCOON:068:1,2004-07-20T15:00:00Z,27.2970,-97.4049,1012.3,11111222 
TCOON,ioos:station:TCOON:068:1,2004-07-20T17:00:00Z,27.2970,-97.4049,1011.8,11111222 
TCOON,ioos:station:TCOON:068:1,2004-07-20T18:00:00Z,27.2970,-97.4049,1011.6,11111222 
TCOON,ioos:station:TCOON:068:1,2004-07-20T19:00:00Z,27.2970,-97.4049,1011.4,11111222 
TCOON,ioos:station:TCOON:068:1,2004-07-20T20:00:00Z,27.2970,-97.4049,1010.9,11111222 
TCOON,ioos:station:TCOON:068:1,2004-07-20T22:00:00Z,27.2970,-97.4049,1010.1,11111222 
TCOON,ioos:station:TCOON:068:1,2004-07-20T23:00:00Z,27.2970,-97.4049,1009.7,11111222 
TCOON,ioos:station:TCOON:068:1,2004-07-21T00:00:00Z,27.2970,-97.4049,1009.9,11111222 
TCOON,ioos:station:TCOON:068:1,2004-07-21T01:00:00Z,27.2970,-97.4049,1009.9,11111222 
TCOON,ioos:station:TCOON:068:1,2004-07-21T02:00:00Z,27.2970,-97.4049,1010.2,11111222 
TCOON,ioos:station:TCOON:068:1,2004-07-21T04:00:00Z,27.2970,-97.4049,1010.9,11111222 
TCOON,ioos:station:TCOON:068:1,2004-07-21T05:00:00Z,27.2970,-97.4049,1011.2,11111222 
TCOON,ioos:station:TCOON:068:1,2004-07-21T07:00:00Z,27.2970,-97.4049,1011.0,11111222 
TCOON,ioos:station:TCOON:068:1,2004-07-21T08:00:00Z,27.2970,-97.4049,1011.0,11111222 
TCOON,ioos:station:TCOON:068:1,2004-07-21T09:00:00Z,27.2970,-97.4049,1011.3,11111222 
TCOON,ioos:station:TCOON:068:1,2004-07-21T10:00:00Z,27.2970,-97.4049,1011.1,11111222 
TCOON,ioos:station:TCOON:068:1,2004-07-21T11:00:00Z,27.2970,-97.4049,1011.2,11111222 
TCOON,ioos:station:TCOON:068:1,2004-07-21T13:00:00Z,27.2970,-97.4049,1011.8,11111222 
TCOON,ioos:station:TCOON:068:1,2004-07-21T14:00:00Z,27.2970,-97.4049,1012.1,11111222 
TCOON,ioos:station:TCOON:068:1,2004-07-21T16:00:00Z,27.2970,-97.4049,1012.3,11111222 
TCOON,ioos:station:TCOON:068:1,2004-07-21T17:00:00Z,27.2970,-97.4049,1012.2,11111222 
TCOON,ioos:station:TCOON:068:1,2004-07-21T18:00:00Z,27.2970,-97.4049,1011.9,11111222 
TCOON,ioos:station:TCOON:068:1,2004-07-21T19:00:00Z,27.2970,-97.4049,1011.5,11111222 
TCOON,ioos:station:TCOON:068:1,2004-07-21T20:00:00Z,27.2970,-97.4049,1011.1,11111222 
TCOON,ioos:station:TCOON:068:1,2004-07-21T23:00:00Z,27.2970,-97.4049,1009.7,11111222 
TCOON,ioos:station:TCOON:068:1,2004-07-22T02:00:00Z,27.2970,-97.4049,1010.2,11111222 
TCOON,ioos:station:TCOON:068:1,2004-07-22T06:00:00Z,27.2970,-97.4049,1011.4,11111222 
TCOON,ioos:station:TCOON:068:1,2004-07-22T08:00:00Z,27.2970,-97.4049,1011.1,11111222 
TCOON,ioos:station:TCOON:068:1,2004-07-22T10:00:00Z,27.2970,-97.4049,1011.0,11111222 
TCOON,ioos:station:TCOON:068:1,2004-07-22T11:00:00Z,27.2970,-97.4049,1010.9,11111222 
TCOON,ioos:station:TCOON:068:1,2004-07-22T12:00:00Z,27.2970,-97.4049,1011.3,11111222 
TCOON,ioos:station:TCOON:068:1,2004-07-22T14:00:00Z,27.2970,-97.4049,1012.3,11111222 
TCOON,ioos:station:TCOON:068:1,2004-07-22T15:00:00Z,27.2970,-97.4049,1012.1,11111222 
TCOON,ioos:station:TCOON:068:1,2004-07-22T16:00:00Z,27.2970,-97.4049,1012.2,11111222 
TCOON,ioos:station:TCOON:068:1,2004-07-22T17:00:00Z,27.2970,-97.4049,1012.3,11111222 
TCOON,ioos:station:TCOON:068:1,2004-07-22T19:00:00Z,27.2970,-97.4049,1011.6,11111222 
TCOON,ioos:station:TCOON:068:1,2004-07-22T20:00:00Z,27.2970,-97.4049,1011.3,11111222 
TCOON,ioos:station:TCOON:068:1,2004-07-23T01:00:00Z,27.2970,-97.4049,1010.7,11111222 
TCOON,ioos:station:TCOON:068:1,2004-07-23T02:00:00Z,27.2970,-97.4049,1010.7,11111222 
TCOON,ioos:station:TCOON:068:1,2004-07-23T04:00:00Z,27.2970,-97.4049,1012.4,11111222 
TCOON,ioos:station:TCOON:068:1,2004-07-23T05:00:00Z,27.2970,-97.4049,1012.9,11111222 
TCOON,ioos:station:TCOON:068:1,2004-07-23T07:00:00Z,27.2970,-97.4049,1012.0,11111222 
TCOON,ioos:station:TCOON:068:1,2004-07-23T08:00:00Z,27.2970,-97.4049,1011.4,11111222 
TCOON,ioos:station:TCOON:068:1,2004-07-23T10:00:00Z,27.2970,-97.4049,1011.5,11111222 
TCOON,ioos:station:TCOON:068:1,2004-07-23T11:00:00Z,27.2970,-97.4049,1012.0,11111222 
TCOON,ioos:station:TCOON:068:1,2004-07-23T12:00:00Z,27.2970,-97.4049,1012.5,11111222 
TCOON,ioos:station:TCOON:068:1,2004-07-23T14:00:00Z,27.2970,-97.4049,1013.2,11111222 
TCOON,ioos:station:TCOON:068:1,2004-07-23T15:00:00Z,27.2970,-97.4049,1012.7,11111222 
TCOON,ioos:station:TCOON:068:1,2004-07-23T16:00:00Z,27.2970,-97.4049,1013.2,11111222 
TCOON,ioos:station:TCOON:068:1,2004-07-23T17:00:00Z,27.2970,-97.4049,1013.1,11111222 
TCOON,ioos:station:TCOON:068:1,2004-07-23T18:00:00Z,27.2970,-97.4049,1013.3,11111222 
TCOON,ioos:station:TCOON:068:1,2004-07-23T19:00:00Z,27.2970,-97.4049,1013.0,11111222 
TCOON,ioos:station:TCOON:068:1,2004-07-23T20:00:00Z,27.2970,-97.4049,1012.8,11111222 
TCOON,ioos:station:TCOON:068:1,2004-07-23T22:00:00Z,27.2970,-97.4049,1011.2,11111222 
TCOON,ioos:station:TCOON:068:1,2004-07-23T23:00:00Z,27.2970,-97.4049,1011.2,11111222 